H1 CPF 2 NER 2022 11 8 9 312 01 glonass143 H2 2007501 9143 46805 2022 11 8 0 0 0 2022 11 11 23 45 0 900 1 1 0 0 0 1 H9 10 0 59891 0.00000 0 22112728.901 8290647.686 -9614321.578 10 0 59891 900.00000 0 20778969.292 7982078.600 -12434762.362 10 0 59891 1800.00000 0 19094443.613 7750764.724 -15013341.666 10 0 59891 2700.00000 0 17097953.784 7643770.820 -17299901.797 10 0 59891 3600.00000 0 14838728.262 7700494.026 -19249973.141 10 0 59891 4500.00000 0 12374541.575 7950818.617 -20825641.407 10 0 59891 5400.00000 0 9769488.642 8413685.462 -21996285.665 10 0 59891 6300.00000 0 7091506.739 9096137.172 -22739172.977 10 0 59891 7200.00000 0 4409748.392 9992879.743 -23039898.317 10 0 59891 8100.00000 0 1791914.453 11086379.557 -22892661.618 10 0 59891 9000.00000 0 -698342.003 12347492.105 -22300376.928 10 0 59891 9900.00000 0 -3003833.358 13736596.264 -21274611.888 10 0 59891 10800.00000 0 -5075976.909 15205186.779 -19835358.961 10 0 59891 11700.00000 0 -6876568.001 16697858.301 -18010643.021 10 0 59891 12600.00000 0 -8379114.097 18154597.803 -15835973.009 10 0 59891 13500.00000 0 -9569675.563 19513289.224 -13353648.368 10 0 59891 14400.00000 0 -10447179.567 20712325.197 -10611933.744 10 0 59891 15300.00000 0 -11023195.589 21693216.084 -7664118.099 10 0 59891 16200.00000 0 -11321183.641 22403086.633 -4567476.683 10 0 59891 17100.00000 0 -11375248.443 22796955.229 -1382156.171 10 0 59891 18000.00000 0 -11228453.439 22839699.822 1829994.966 10 0 59891 18900.00000 0 -10930767.080 22507627.837 5006627.906 10 0 59891 19800.00000 0 -10536729.072 21789584.026 8086103.154 10 0 59891 20700.00000 0 -10102935.896 20687549.707 11008684.697 10 0 59891 21600.00000 0 -9685452.301 19216708.163 13717695.513 10 0 59891 22500.00000 0 -9337258.289 17404973.319 16160612.214 10 0 59891 23400.00000 0 -9105839.360 15292001.179 18290077.886 10 0 59891 24300.00000 0 -9031021.506 12927724.954 20064814.145 10 0 59891 25200.00000 0 -9143142.007 10370474.342 21450415.422 10 0 59891 26100.00000 0 -9461632.876 7684756.608 22420010.818 10 0 59891 27000.00000 0 -9994076.548 4938790.757 22954781.448 10 0 59891 27900.00000 0 -10735773.709 2201896.112 23044323.837 10 0 59891 28800.00000 0 -11669841.915 -458157.412 22686852.636 10 0 59891 29700.00000 0 -12767841.618 -2977728.664 21889238.822 10 0 59891 30600.00000 0 -13990904.361 -5299708.383 20666882.354 10 0 59891 31500.00000 0 -15291316.974 -7375647.352 19043421.202 10 0 59891 32400.00000 0 -16614496.480 -9167522.087 17050281.596 10 0 59891 33300.00000 0 -17901273.995 -10649065.367 14726077.228 10 0 59891 34200.00000 0 -19090392.522 -11806606.683 12115868.106 10 0 59891 35100.00000 0 -20121114.349 -12639388.048 9270292.540 10 0 59891 36000.00000 0 -20935828.544 -13159342.351 6244588.358 10 0 59891 36900.00000 0 -21482548.620 -13390343.923 3097521.978 10 0 59891 37800.00000 0 -21717194.569 -13366963.278 -109753.974 10 0 59891 38700.00000 0 -21605562.175 -13132779.014 -3314892.167 10 0 59891 39600.00000 0 -21124895.597 -12738318.745 -6455567.404 10 0 59891 40500.00000 0 -20264995.653 -12238716.788 -9470694.496 10 0 59891 41400.00000 0 -19028815.932 -11691188.484 -12301622.715 10 0 59891 42300.00000 0 -17432520.523 -11152428.819 -14893282.696 10 0 59891 43200.00000 0 -15504999.870 -10676046.299 -17195262.868 10 0 59891 44100.00000 0 -13286864.301 -10310141.370 -19162793.957 10 0 59891 45000.00000 0 -10828956.802 -10095132.486 -20757622.084 10 0 59891 45900.00000 0 -8190446.814 -10061922.169 -21948753.433 10 0 59891 46800.00000 0 -5436584.273 -10230480.914 -22713056.181 10 0 59891 47700.00000 0 -2636207.371 -10608908.931 -23035708.224 10 0 59891 48600.00000 0 140892.474 -11193015.415 -22910482.401 10 0 59891 49500.00000 0 2826639.187 -11966433.176 -22339864.019 10 0 59891 50400.00000 0 5357263.517 -12901263.812 -21334998.742 10 0 59891 51300.00000 0 7675710.339 -13959226.296 -19915472.099 10 0 59891 52200.00000 0 9733762.472 -15093260.657 -18108925.027 10 0 59891 53100.00000 0 11493793.485 -16249519.222 -15950513.057 10 0 59891 54000.00000 0 12930077.704 -17369661.610 -13482219.647 10 0 59891 54900.00000 0 14029604.109 -18393356.821 -10752037.035 10 0 59891 55800.00000 0 14792361.513 -19260886.946 -7813030.673 10 0 59891 56700.00000 0 15231084.723 -19915742.724 -4722305.496 10 0 59891 57600.00000 0 15370473.914 -20307101.483 -1539894.360 10 0 59891 58500.00000 0 15245921.534 -20392082.898 1672409.455 10 0 59891 59400.00000 0 14901801.754 -20137687.409 4852252.698 10 0 59891 60300.00000 0 14389395.715 -19522335.505 7937932.019 10 0 59891 61200.00000 0 13764540.990 -18536942.960 10869589.498 10 0 59891 62100.00000 0 13085105.048 -17185486.595 13590370.652 10 0 59891 63000.00000 0 12408389.624 -15485036.511 16047522.641 10 0 59891 63900.00000 0 11788575.495 -13465253.061 18193411.671 10 0 59891 64800.00000 0 11274315.182 -11167369.047 19986440.481 10 0 59891 65700.00000 0 10906574.610 -8642698.848 21391848.837 10 0 59891 66600.00000 0 10716814.167 -5950735.813 22382382.227 10 0 59891 67500.00000 0 10725585.314 -3156915.942 22938816.568 10 0 59891 68400.00000 0 10941601.490 -330139.571 23050329.335 10 0 59891 69300.00000 0 11361322.371 2459847.302 22714710.260 10 0 59891 70200.00000 0 11969069.213 5145104.724 21938407.620 10 0 59891 71100.00000 0 12737666.989 7662074.849 20736408.944 10 0 59891 72000.00000 0 13629587.110 9953976.477 19131957.923 10 0 59891 72900.00000 0 14598543.659 11972919.653 17156112.225 10 0 59891 73800.00000 0 15591476.955 13681653.171 14847149.801 10 0 59891 74700.00000 0 16550841.861 15054872.729 12249834.275 10 0 59891 75600.00000 0 17417105.169 16080035.660 9414552.739 10 0 59891 76500.00000 0 18131347.090 16757648.436 6396341.932 10 0 59891 77400.00000 0 18637857.205 17101015.200 3253821.358 10 0 59891 78300.00000 0 18886614.810 17135458.177 48053.882 10 0 59891 79200.00000 0 18835548.246 16897043.173 -3158643.865 10 0 59891 80100.00000 0 18452476.805 16430864.375 -6303917.610 10 0 59891 81000.00000 0 17716651.994 15788961.443 -9326593.765 10 0 59891 81900.00000 0 16619831.844 15027957.573 -12167875.523 10 0 59891 82800.00000 0 15166841.620 14206519.074 -14772492.580 10 0 59891 83700.00000 0 13375596.108 13382744.628 -17089781.494 10 0 59891 84600.00000 0 11276581.408 12611595.227 -19074675.132 10 0 59891 85500.00000 0 8911817.096 11942473.958 -20688581.622 10 0 59892 0.00000 0 6333341.667 11417058.267 -21900135.586 10 0 59892 900.00000 0 3601282.499 11067476.135 -22685807.762 10 0 59892 1800.00000 0 781593.996 10914903.812 -23030359.853 10 0 59892 2700.00000 0 -2056446.983 10968643.142 -22927138.349 10 0 59892 3600.00000 0 -4842881.106 11225717.863 -22378200.239 10 0 59892 4500.00000 0 -7509733.947 11671005.290 -21394269.235 10 0 59892 5400.00000 0 -9993600.186 12277897.527 -19994523.507 10 0 59892 6300.00000 0 -12238037.838 13009464.047 -18206219.181 10 0 59892 7200.00000 0 -14195673.631 13820066.350 -16064157.043 10 0 59892 8100.00000 0 -15829932.816 14657356.358 -13610002.833 10 0 59892 9000.00000 0 -17116322.437 15464574.067 -10891474.322 10 0 59892 9900.00000 0 -18043215.621 16183047.281 -7961411.119 10 0 59892 10800.00000 0 -18612105.516 16754787.738 -4876745.342 10 0 59892 11700.00000 0 -18837319.672 17125073.854 -1697393.376 10 0 59892 12600.00000 0 -18745208.254 17244910.821 1514909.420 10 0 59892 13500.00000 0 -18372841.627 17073264.065 4697808.159 10 0 59892 14400.00000 0 -17766273.325 16578971.587 7789538.465 10 0 59892 15300.00000 0 -16978442.584 15742254.373 10730123.337 10 0 59892 16200.00000 0 -16066805.533 14555760.966 13462533.625 10 0 59892 17100.00000 0 -15090795.293 13025101.897 15933789.757 10 0 59892 18000.00000 0 -14109218.076 11168851.068 18095983.644 10 0 59892 18900.00000 0 -13177694.754 9018013.380 19907201.537 10 0 59892 19800.00000 0 -12346255.115 6614979.976 21332330.675 10 0 59892 20700.00000 0 -11657185.403 4012013.769 22343734.762 10 0 59892 21600.00000 0 -11143218.986 1269327.091 22921785.984 10 0 59892 22500.00000 0 -10826145.506 -1547169.924 23055243.838 10 0 59892 23400.00000 0 -10715896.553 -4368358.046 22741473.777 10 0 59892 24300.00000 0 -10810145.969 -7124532.881 21986501.557 10 0 59892 25200.00000 0 -11094441.653 -9748056.544 20804901.978 10 0 59892 26100.00000 0 -11542863.600 -12175928.175 19219523.674 10 0 59892 27000.00000 0 -12119181.044 -14352167.581 17261054.494 10 0 59892 27900.00000 0 -12778460.675 -16229913.763 14967434.955 10 0 59892 28800.00000 0 -13469058.845 -17773151.449 12383130.200 10 0 59892 29700.00000 0 -14134914.353 -18957993.996 9558273.648 10 0 59892 30600.00000 0 -14718045.506 -19773469.396 6547698.227 10 0 59892 31500.00000 0 -15161145.998 -20221776.428 3409873.588 10 0 59892 32400.00000 0 -15410169.619 -20318000.395 205769.752 10 0 59892 33300.00000 0 -15416793.976 -20089300.639 -3002330.547 10 0 59892 34200.00000 0 -15140658.076 -19573604.270 -6152047.204 10 0 59892 35100.00000 0 -14551278.037 -18817861.627 -9182121.501 10 0 59892 36000.00000 0 -13629558.691 -17875937.626 -12033613.796 10 0 59892 36900.00000 0 -12368835.824 -16806228.571 -14651056.008 10 0 59892 37800.00000 0 -10775403.799 -15669105.747 -16983535.801 10 0 59892 38700.00000 0 -8868504.986 -14524294.268 -18985690.895 10 0 59892 39600.00000 0 -6679780.361 -13428298.328 -20618593.776 10 0 59892 40500.00000 0 -4252203.257 -12431981.743 -21850509.574 10 0 59892 41400.00000 0 -1638540.018 -11578405.884 -22657512.518 10 0 59892 42300.00000 0 1100598.807 -10901016.011 -23023949.188 10 0 59892 43200.00000 0 3899036.062 -10422252.029 -22942739.986 10 0 59892 44100.00000 0 6687540.093 -10152641.692 -22415513.326 10 0 59892 45000.00000 0 9396467.214 -10090413.803 -21452570.241 10 0 59892 45900.00000 0 11958425.180 -10221647.035 -20072680.389 10 0 59892 46800.00000 0 14310847.411 -10520947.371 -18302713.539 10 0 59892 47700.00000 0 16398371.429 -10952624.996 -16177113.820 10 0 59892 48600.00000 0 18174923.186 -11472320.378 -13737226.970 10 0 59892 49500.00000 0 19605421.294 -12029010.375 -11030493.655 10 0 59892 50400.00000 0 20667030.896 -12567309.223 -8109524.660 10 0 59892 51300.00000 0 21349915.917 -13029966.776 -5031076.015 10 0 59892 52200.00000 0 21657459.430 -13360458.070 -1854944.155 10 0 59892 53100.00000 0 21605944.063 -13505554.442 1357197.073 10 0 59892 54000.00000 0 21223707.227 -13417767.273 4542994.715 10 0 59892 54900.00000 0 20549807.761 -13057560.829 7640626.790 10 0 59892 55800.00000 0 19632261.129 -12395240.518 10590000.387 10 0 59892 56700.00000 0 18525918.203 -11412436.614 13333914.501 10 0 59892 57600.00000 0 17290077.369 -10103120.562 15819165.236 10 0 59892 58500.00000 0 15985930.633 -8474110.633 17997572.168 10 0 59892 59400.00000 0 14673950.951 -6545045.033 19826906.584 10 0 59892 60300.00000 0 13411330.150 -4347822.698 21271704.273 10 0 59892 61200.00000 0 12249574.414 -1925534.135 22303947.821 10 0 59892 62100.00000 0 11232357.418 669074.358 22903605.955 10 0 59892 63000.00000 0 10393720.351 3375540.589 23059020.087 10 0 59892 63900.00000 0 9756693.525 6127951.200 22767130.927 10 0 59892 64800.00000 0 9332396.746 8857438.741 22033540.914 10 0 59892 65700.00000 0 9119655.750 11494808.822 20872411.015 10 0 59892 66600.00000 0 9105150.643 13973189.521 19306193.424 10 0 59892 67500.00000 0 9264090.158 16230594.108 17365204.535 10 0 59892 68400.00000 0 9561383.620 18212291.367 15087045.572 10 0 59892 69300.00000 0 9953261.613 19872885.325 12515881.122 10 0 59892 70200.00000 0 10389277.418 21178018.028 9701588.685 10 0 59892 71100.00000 0 10814604.972 22105624.368 6698794.957 10 0 59892 72000.00000 0 11172536.328 22646686.297 3565817.155 10 0 59892 72900.00000 0 11407072.814 22805454.854 363529.797 10 0 59892 73800.00000 0 11465499.667 22599130.522 -2845820.978 10 0 59892 74700.00000 0 11300834.409 22057015.437 -5999831.907 10 0 59892 75600.00000 0 10874044.313 21219173.437 -9037161.701 10 0 59892 76500.00000 0 10155937.859 20134654.618 -11898730.284 10 0 59892 77400.00000 0 9128648.872 18859359.744 -14528873.985 10 0 59892 78300.00000 0 7786649.288 17453635.051 -16876433.551 10 0 59892 79200.00000 0 6137246.432 15979699.326 -18895753.303 10 0 59892 80100.00000 0 4200542.612 14499012.146 -20547571.634 10 0 59892 81000.00000 0 2008857.552 13069694.360 -21799785.453 10 0 59892 81900.00000 0 -394363.222 11744109.468 -22628073.862 10 0 59892 82800.00000 0 -2956109.185 10566707.474 -23016369.148 10 0 59892 83700.00000 0 -5615770.430 9572221.466 -22957166.325 10 0 59892 84600.00000 0 -8307426.781 8784292.062 -22451665.602 10 0 59892 85500.00000 0 -10962365.517 8214576.759 -21509745.315 10 0 59893 0.00000 0 -13511723.212 7862380.684 -20149766.300 10 0 59893 900.00000 0 -15889143.566 7714823.088 -18398210.821 10 0 59893 1800.00000 0 -18033337.583 7747532.025 -16289165.122 10 0 59893 2700.00000 0 -19890444.609 7925836.276 -13863653.227 10 0 59893 3600.00000 0 -21416092.910 8206403.907 -11168836.680 10 0 59893 4500.00000 0 -22577075.831 8539257.252 -8257095.189 10 0 59893 5400.00000 0 -23352574.095 8870078.525 -5185006.284 10 0 59893 6300.00000 0 -23734873.964 9142708.031 -2012243.914 10 0 59893 7200.00000 0 -23729552.166 9301728.800 1199582.213 10 0 59893 8100.00000 0 -23355120.853 9295027.940 4388123.774 10 0 59893 9000.00000 0 -22642148.536 9076226.014 7491503.957 10 0 59893 9900.00000 0 -21631894.835 8606871.488 10449516.731 10 0 59893 10800.00000 0 -20374517.198 7858307.245 13204792.042 10 0 59893 11700.00000 0 -18926925.448 6813130.103 15703904.408 10 0 59893 12600.00000 0 -17350374.568 5466181.402 17898403.681 10 0 59893 13500.00000 0 -15707896.697 3825026.448 19745748.583 10 0 59893 14400.00000 0 -14061679.675 1909901.846 21210125.573 10 0 59893 15300.00000 0 -12470501.451 -246868.032 22263137.884 10 0 59893 16200.00000 0 -10987326.938 -2601962.298 22884352.155 10 0 59893 17100.00000 0 -9657166.950 -5102618.458 23061692.665 10 0 59893 18000.00000 0 -8515287.890 -7688587.662 22791675.901 10 0 59893 18900.00000 0 -7585846.171 -10294410.567 22079481.074 10 0 59893 19800.00000 0 -6881003.748 -12851920.775 20938854.993 10 0 59893 20700.00000 0 -6400561.282 -15292873.059 19391852.664 10 0 59893 21600.00000 0 -6132123.940 -17551588.361 17468417.902 10 0 59893 22500.00000 0 -6051792.692 -19567506.401 15205811.135 10 0 59893 23400.00000 0 -6125352.068 -21287540.066 12647894.576 10 0 59893 24300.00000 0 -6309904.380 -22668133.766 9844287.686 10 0 59893 25200.00000 0 -6555881.573 -23676939.746 6849408.588 10 0 59893 26100.00000 0 -6809349.660 -24294042.015 3721419.567 10 0 59893 27000.00000 0 -7014508.083 -24512676.288 521096.984 10 0 59893 27900.00000 0 -7116277.695 -24339415.422 -2689352.372 10 0 59893 28800.00000 0 -7062867.123 -23793812.327 -5847504.913 10 0 59893 29700.00000 0 -6808207.805 -22907515.285 -8891939.689 10 0 59893 30600.00000 0 -6314153.492 -21722892.978 -11763439.146 10 0 59893 31500.00000 0 -5552349.858 -20291227.313 -14406146.962 10 0 59893 32400.00000 0 -4505693.787 -18670550.476 -16768659.831 10 0 59893 33300.00000 0 -3169319.380 -16923217.616 -18805031.385 10 0 59893 34200.00000 0 -1551067.827 -15113317.681 -20475668.374 10 0 59893 35100.00000 0 328579.886 -13304031.497 -21748101.609 10 0 59893 36000.00000 0 2437105.759 -11555048.134 -22597616.782 10 0 59893 36900.00000 0 4731068.727 -9920147.912 -23007733.150 10 0 59893 37800.00000 0 7157684.080 -8445053.055 -22970521.152 10 0 59893 38700.00000 0 9656803.154 -7165635.431 -22486753.156 10 0 59893 39600.00000 0 12163211.218 -6106555.731 -21565884.751 10 0 59893 40500.00000 0 14609148.341 -5280390.036 -20225867.216 10 0 59893 41400.00000 0 16926948.624 -4687279.226 -18492794.945 10 0 59893 42300.00000 0 19051688.131 -4315114.685 -16400394.825 10 0 59893 43200.00000 0 20923731.545 -4140251.176 -13989367.476 10 0 59893 44100.00000 0 22491071.664 -4128715.607 -11306593.169 10 0 59893 45000.00000 0 23711364.469 -4237859.575 -8404217.959 10 0 59893 45900.00000 0 24553575.206 -4418384.919 -5338637.865 10 0 59893 46800.00000 0 24999167.220 -4616655.761 -2169401.020 10 0 59893 47700.00000 0 25042784.392 -4777198.590 1041950.567 10 0 59893 48600.00000 0 24692399.365 -4845284.012 4233076.868 10 0 59893 49500.00000 0 23968922.110 -4769480.458 7342049.833 10 0 59893 50400.00000 0 22905286.009 -4504071.518 10308553.770 10 0 59893 51300.00000 0 21545050.500 -4011234.391 13075052.740 10 0 59893 52200.00000 0 19940579.373 -3262887.177 15587902.499 10 0 59893 53100.00000 0 18150871.401 -2242126.746 17798385.615 10 0 59893 54000.00000 0 16239134.234 -944196.211 19663650.274 10 0 59893 54900.00000 0 14270202.780 623059.364 21147535.222 10 0 59893 55800.00000 0 12307909.593 2439268.937 22221265.557 10 0 59893 56700.00000 0 10412516.306 4472141.087 22864006.647 10 0 59893 57600.00000 0 8638312.455 6678575.254 23063266.040 10 0 59893 58500.00000 0 7031480.898 9006233.686 22815136.001 10 0 59893 59400.00000 0 5628317.881 11395510.160 22124372.095 10 0 59893 60300.00000 0 4453881.065 13781815.098 21004306.153 10 0 59893 61200.00000 0 3521121.227 16098083.352 19476594.790 10 0 59893 62100.00000 0 2830533.243 18277401.534 17570807.686 10 0 59893 63000.00000 0 2370340.504 20255646.435 15323862.600 10 0 59893 63900.00000 0 2117204.694 21974025.155 12779317.221 10 0 59893 64800.00000 0 2037430.883 23381411.261 9986530.607 10 0 59893 65700.00000 0 2088616.969 24436379.250 6999709.734 10 0 59893 66600.00000 0 2221677.738 25108851.939 3876859.230 10 0 59893 67500.00000 0 2383157.633 25381291.151 678654.466 10 0 59893 68400.00000 0 2517733.939 25249381.248 -2532739.993 10 0 59893 69300.00000 0 2570803.718 24722176.295 -5694883.097 10 0 59893 70200.00000 0 2491044.051 23821704.218 -8746276.990 10 0 59893 71100.00000 0 2232836.075 22582044.400 -11627569.216 10 0 59893 72000.00000 0 1758449.024 21047917.361 -14282713.187 10 0 59893 72900.00000 0 1039890.583 19272845.975 -16660063.685 10 0 59893 73800.00000 0 60344.069 17316965.652 -18713385.571 10 0 59893 74700.00000 0 -1184869.461 15244575.759 -20402755.648 10 0 59893 75600.00000 0 -2687845.905 13121535.246 -21695340.100 10 0 59893 76500.00000 0 -4428189.497 11012611.716 -22566032.477 10 0 59893 77400.00000 0 -6373637.983 8978894.991 -22997940.038 10 0 59893 78300.00000 0 -8481196.294 7075383.081 -22982709.395 10 0 59893 79200.00000 0 -10698732.075 5348840.979 -22520685.494 10 0 59893 80100.00000 0 -12966966.933 3836021.088 -21620901.195 10 0 59893 81000.00000 0 -15221780.815 2562318.595 -20300897.937 10 0 59893 81900.00000 0 -17396733.773 1540916.854 -18586381.128 10 0 59893 82800.00000 0 -19425700.113 772457.180 -16510717.089 10 0 59893 83700.00000 0 -21245505.286 245245.385 -14114281.330 10 0 59893 84600.00000 0 -22798455.621 -64015.115 -11443670.823 10 0 59893 85500.00000 0 -24034655.343 -188995.906 -8550795.675 10 0 59894 0.00000 0 -24914014.188 -172074.993 -5491868.201 10 0 59894 900.00000 0 -25407862.281 -62298.610 -2326307.527 10 0 59894 1800.00000 0 -25500103.857 86939.440 884414.522 10 0 59894 2700.00000 0 -25187863.547 220401.967 4077969.060 10 0 59894 3600.00000 0 -24481597.317 283589.561 7192379.745 10 0 59894 4500.00000 0 -23404664.479 225289.074 10167224.182 10 0 59894 5400.00000 0 -21992379.131 -18.674 12944803.505 10 0 59894 6300.00000 0 -20290581.105 -429993.983 15471257.571 10 0 59894 7200.00000 0 -18353786.542 -1092607.732 17697604.352 10 0 59894 8100.00000 0 -16242995.446 -2004722.692 19580683.921 10 0 59894 9000.00000 0 -14023247.578 -3171146.853 21083989.391 10 0 59894 9900.00000 0 -11761028.290 -4584199.102 22178369.388 10 0 59894 10800.00000 0 -9521631.712 -6223806.378 22842589.212 10 0 59894 11700.00000 0 -7366590.230 -8058129.324 23063740.440 10 0 59894 12600.00000 0 -5351276.344 -10044691.569 22837491.404 10 0 59894 13500.00000 0 -3522775.625 -12131966.950 22168173.902 10 0 59894 14400.00000 0 -1918118.277 -14261360.005 21068704.261 10 0 59894 15300.00000 0 -562942.095 -16369498.548 19560339.830 10 0 59894 16200.00000 0 529358.272 -18390744.078 17672274.926 10 0 59894 17100.00000 0 1357960.930 -20259816.363 15441083.121 10 0 59894 18000.00000 0 1934411.909 -21914423.302 12910015.770 10 0 59894 18900.00000 0 2281894.966 -23297786.518 10128169.455 10 0 59894 19800.00000 0 2434007.101 -24360957.191 7149537.728 10 0 59894 20700.00000 0 2433091.673 -25064824.594 4031965.123 10 0 59894 21600.00000 0 2328199.878 -25381732.545 836023.465 10 0 59894 22500.00000 0 2172767.303 -25296635.273 -2376167.532 10 0 59894 23400.00000 0 2022104.499 -24807743.250 -5542152.022 10 0 59894 24300.00000 0 1930808.652 -23926631.178 -8600357.947 10 0 59894 25200.00000 0 1950206.955 -22677803.006 -11491300.663 10 0 59894 26100.00000 0 2125941.021 -21097731.786 -14158745.998 10 0 59894 27000.00000 0 2495795.720 -19233414.539 -16550809.439 10 0 59894 27900.00000 0 3087865.464 -17140502.705 -18620969.538 10 0 59894 28800.00000 0 3919136.492 -14881086.712 -20328975.409 10 0 59894 29700.00000 0 4994546.050 -12521227.601 -21641630.582 10 0 59894 30600.00000 0 6306559.125 -10128339.038 -22533438.090 10 0 59894 31500.00000 0 7835281.372 -7768529.223 -22987094.441 10 0 59894 32400.00000 0 9549104.345 -5504013.433 -22993823.272 10 0 59894 33300.00000 0 11405856.653 -3390704.803 -22553542.578 10 0 59894 34200.00000 0 13354413.426 -1476083.205 -21674862.589 10 0 59894 35100.00000 0 15336697.184 202569.778 -20374914.655 10 0 59894 36000.00000 0 17289986.873 1619497.302 -18679014.595 10 0 59894 36900.00000 0 19149438.710 2761300.998 -16620167.187 10 0 59894 37800.00000 0 20850713.635 3627248.707 -14238421.467 10 0 59894 38700.00000 0 22332601.601 4229044.899 -11580089.329 10 0 59894 39600.00000 0 23539532.883 4590075.036 -8696842.730 10 0 59894 40500.00000 0 24423871.340 4744157.225 -5644707.116 10 0 59894 41400.00000 0 24947893.597 4733855.247 -2482970.762 10 0 59894 42300.00000 0 25085371.289 4608425.330 726968.428 10 0 59894 43200.00000 0 24822690.177 4421484.519 3922796.063 10 0 59894 44100.00000 0 24159459.419 4228500.002 7042490.877 10 0 59894 45000.00000 0 23108585.695 4084206.168 10025527.063 10 0 59894 45900.00000 0 21695809.303 4040059.009 12814045.942 10 0 59894 46800.00000 0 19958721.847 4141835.716 15353974.346 10 0 59894 47700.00000 0 17945306.687 4427480.976 17596068.235 10 0 59894 48600.00000 0 15712063.086 4925290.929 19496861.841 10 0 59894 49500.00000 0 13321792.016 5652511.534 21019504.591 10 0 59894 50400.00000 0 10841135.496 6614410.576 22134470.240 10 0 59894 51300.00000 0 8337971.187 7803862.857 22820125.270 10 0 59894 52200.00000 0 5878769.674 9201466.768 23063146.135 10 0 59894 53100.00000 0 3526023.384 10776188.319 22858777.672 10 0 59894 54000.00000 0 1335852.802 12486506.957 22210927.902 10 0 59894 54900.00000 0 -644111.617 14282016.621 21132097.177 10 0 59894 55800.00000 0 -2376484.722 16105416.497 19643142.651 10 0 59894 56700.00000 0 -3835447.052 17894809.610 17772881.924 10 0 59894 57600.00000 0 -5007576.073 19586214.336 15557542.635 10 0 59894 58500.00000 0 -5892154.177 21116184.549 13040067.739 10 0 59894 59400.00000 0 -6500941.140 22424429.273 10269289.026 10 0 59894 60300.00000 0 -6857421.090 23456322.162 7298984.114 10 0 59894 61200.00000 0 -6995556.016 24165195.226 4186834.744 10 0 59894 62100.00000 0 -6958098.882 24514319.952 993306.425 10 0 59894 63000.00000 0 -6794538.043 24478491.668 -2219528.830 10 0 59894 63900.00000 0 -6558760.518 24045149.566 -5389203.235 10 0 59894 64800.00000 0 -6306533.789 23214984.398 -8454073.322 10 0 59894 65700.00000 0 -6092913.597 22002007.278 -11354524.941 10 0 59894 66600.00000 0 -5969688.480 20433076.005 -14034138.859 10 0 59894 67500.00000 0 -5982970.234 18546898.198 -16440793.591 10 0 59894 68400.00000 0 -6171033.287 16392552.700 -18527683.487 10 0 59894 69300.00000 0 -6562495.259 14027591.034 -20254231.854 10 0 59894 70200.00000 0 -7174916.458 11515798.321 -21586881.230 10 0 59894 71100.00000 0 -8013878.172 8924707.173 -22499745.568 10 0 59894 72000.00000 0 -9072579.292 6322968.359 -22975111.813 10 0 59894 72900.00000 0 -10331968.841 3777687.708 -23003781.541 10 0 59894 73800.00000 0 -11761409.383 1351839.863 -22585246.371 10 0 59894 74700.00000 0 -13319843.903 -898133.846 -21727694.097 10 0 59894 75600.00000 0 -14957417.577 -2924444.188 -20447845.746 10 0 59894 76500.00000 0 -16617486.766 -4689702.214 -18770626.857 10 0 59894 77400.00000 0 -18238931.203 -6168225.121 -16728679.547 10 0 59894 78300.00000 0 -19758672.618 -7346846.732 -14361724.837 10 0 59894 79200.00000 0 -21114294.285 -8225200.300 -11715787.647 10 0 59894 80100.00000 0 -22246651.602 -8815463.385 -8842299.590 10 0 59894 81000.00000 0 -23102364.147 -9141577.207 -5797097.081 10 0 59894 81900.00000 0 -23636084.562 -9237974.908 -2639334.359 10 0 59894 82800.00000 0 -23812448.894 -9147873.706 569667.142 10 0 59894 83700.00000 0 -23607626.514 -8921204.279 3767610.475 10 0 59894 84600.00000 0 -23010404.464 -8612265.818 6892432.512 10 0 59894 85500.00000 0 -22022760.769 -8277206.600 9883507.166 99